Zurück zum Katalog

STARLINK-32350

AktivKommunikationVLEO
NORAD 61063·PAYLOAD·🇺🇸 United States

Gestartet Sep 13, 2024 von Vandenberg Space Force Base

Loading…

Nächste Überflüge (nächste 24 Stunden)

TLE

AktuellSource: CelesTrak SupGP

Epoche: Sep 15, 2026, 03:08 UTC

1 61063C 24164P   26258.13104167  .00005131  00000+0  16497-3 0  2586
2 61063  53.1591 289.8203 0001280  85.2452 183.6081 15.31704952    16

Verfolge STARLINK-32350 in Echtzeit mit AllMySat

Download on the App Store